Terug naar catalogus

STARLINK-30865

ActiefCommunicatieVLEO
NORAD 58226·PAYLOAD·🇺🇸 United States

Gelanceerd Nov 3, 2023 vanaf Cape Canaveral Space Force Station

Loading…

Volgende Passages (komende 24 uur)

TLE

VersSource: CelesTrak SupGP

Epoch: Sep 14, 2026, 20:50 UTC

1 58226C 23170W   26257.86854167  .00016474  00000+0  59667-3 0  2577
2 58226  43.0021 194.6346 0001153 261.0183 104.3320 15.27571703    11

Volg STARLINK-30865 in realtime met AllMySat

Download on the App Store